This is the latest recevied weather packets stored in our database for station/object NK7E-1. If no packets are shown the sender has not sent any weather packets the latest 10 day(s).
| Time | Temp. | Humidity | Pressure | Rain* | Wind** | Luminosity | Snow |
|---|---|---|---|---|---|---|---|
| 1777750201 | 28.89° C | 17% | 1015.1 hPa | 0 mm | - | - | - |
| 1777749600 | 28.89° C | 19% | 1015.2 hPa | 0 mm | - | - | - |
| 1777748999 | 28.33° C | 20% | 1015.3 hPa | 0 mm | - | - | - |
| 1777748402 | 28.89° C | 22% | 1015.4 hPa | 0 mm | - | - | - |
| 1777747800 | 28.33° C | 22% | 1015.6 hPa | 0 mm | - | - | - |
| 1777747201 | 27.78° C | 24% | 1015.7 hPa | 0 mm | - | - | - |
| 1777746601 | 27.78° C | 24% | 1016 hPa | 0 mm | - | - | - |
| 1777745999 | 27.22° C | 25% | 1016.1 hPa | 0 mm | - | - | - |
| 1777745401 | 27.22° C | 27% | 1016.2 hPa | 0 mm | - | - | - |
| 1777744799 | 27.22° C | 27% | 1016.3 hPa | 0 mm | - | - | - |
| 1777744199 | 27.22° C | 28% | 1016.3 hPa | 0 mm | - | - | - |
| 1777743599 | 26.67° C | 28% | 1016.5 hPa | 0 mm | - | - | - |
| 1777742999 | 26.67° C | 29% | 1016.6 hPa | 0 mm | - | - | - |
| 1777742399 | 26.67° C | 30% | 1016.6 hPa | 0 mm | - | - | - |
| 1777741799 | 26.11° C | 30% | 1016.6 hPa | 0 mm | - | - | - |
| 1777741199 | 25.56° C | 31% | 1016.6 hPa | 0 mm | - | - | - |
| 1777740599 | 25.56° C | 32% | 1016.5 hPa | 0 mm | - | - | - |
| 1777739999 | 25° C | 32% | 1016.5 hPa | 0 mm | - | - | - |
| 1777739399 | 25° C | 32% | 1016.5 hPa | 0 mm | - | - | - |
| 1777738799 | 25° C | 33% | 1016.5 hPa | 0 mm | - | - | - |
| 1777738199 | 25° C | 33% | 1016.5 hPa | 0 mm | - | - | - |
| 1777737601 | 25° C | 33% | 1016.4 hPa | 0 mm | - | - | - |
| 1777737001 | 24.44° C | 33% | 1016.5 hPa | 0 mm | - | - | - |
| 1777736400 | 23.89° C | 34% | 1016.5 hPa | 0 mm | - | - | - |
| 1777735800 | 23.89° C | 34% | 1016.5 hPa | 0 mm | - | - | - |
* Rain latest hour (hover to see other rain measurements)
** Current wind speed in m/s (hover to see current wind gust speed)